Location: Mound City (historical)
(34.0564°N, 117.2656°W)
Time: 03:30:31
(UTC+00:00)

Cosmos 1606 Rocket - Pass Details

Date: 08 September 2024
Orbit: 600 x 626 km, 82.5° (Epoch: 03 October)

Event Time Altitude Azimuth Distance (km) Brightness Sun altitude
Rises 12:27:23 0° 193° (SSW) 2,834 6.7 -13.1°
Reaches altitude 10° 12:29:35 10° 196° (SSW) 1,938 5.8 -12.7°
Maximum altitude 12:33:50 63° 277° (W) 677 3.5 -11.8°
Drops below altitude 10° 12:38:08 10° 359° (N) 1,965 6.3 -11.0°
Sets 12:40:24 0° 3° (N) 2,878 7.2 -10.5°
